Wind_Speed
13 12 15 17 17 18 11 9 8 6 6 5 4 5 4 4 8 10 10 11 4 6 5 8 8 8 10 7 5 5 11 19 21 20 26 22 21 17 15 24 26 23 18
9 13 14 13 14 11 6 7 8 5 5 4 1 1 3 4 6 6 8 9 3 4 6 7 8 6 2 9 7 6 12 19 22 18 27 20 27 12 17 28 21 20 22
9 11 11 10 12 7 4 4 6 4 4 6 3 2 2 3 6 7 7 9 5 6 7 10 10 5 7 8 5 9 13 20 25 15 16 15 16 12 19 18 23 25 21
10 11 9 9 10 6 5 3 4 2 4 6 4 2 3 2 4 7 11 6 8 11 12 10 12 12 9 7 5 4 13 20 20 13 15 19 22 16 21 17 19 20 21
8 5 7 10 9 5 5 4 2 2 3 6 8 3 1 3 6 10 13 13 14 15 14 13 13 12 8 5 11 16 20 22 22 22 20 24 16 20 21 22 21 21 19
4 6 8 8 5 5 5 4 4 3 4 6 9 3 4 4 8 12 19 14 10 12 13 10 10 10 11 16 17 24 24 22 27 28 29 27 25 22 23 21 19 18 15
5 6 6 3 6 3 2 4 4 5 4 5 6 7 8 5 7 10 16 20 16 14 15 13 18 18 18 19 21 23 22 23 24 19 27 27 24 22 21 19 16 14 11
5 6 6 6 8 5 3 3 1 4 4 6 7 9 10 6 8 11 16 17 19 14 17 19 18 20 17 26 29 25 23 22 23 22 21 20 16 15 18 18 17 16 14
7 8 7 7 9 8 6 6 5 0 2 11 8 10 12 9 10 10 10 16 18 18 17 15 15 19 17 16 19 20 19 19 20 18 15 13 15 18 19 18 16 13 10
7 8 8 11 8 10 11 12 11 7 5 11 9 11 13 12 9 9 8 12 17 18 16 15 14 15 16 17 14 15 19 16 19 17 13 13 12 14 16 14 11 8 5
6 7 7 9 11 9 9 9 9 11 9 10 9 12 13 13 10 9 9 11 12 14 17 18 18 18 17 20 23 25 24 19 19 17 13 11 15 14 12 9 7 5 6
7 6 5 6 9 10 12 12 13 11 12 11 11 11 12 13 12 9 7 8 8 9 14 16 18 17 18 20 20 19 20 21 20 18 16 13 10 8 7 6 6 8 8
6 6 6 5 6 9 11 13 21 20 15 18 15 12 10 11 9 7 5 9 13 14 13 16 19 18 17 15 17 19 20 19 17 14 11 8 5 4 7 6 7 10 10
7 7 6 6 7 8 10 11 12 16 20 23 22 22 21 18 16 17 17 18 19 20 21 21 22 22 20 19 17 16 14 11 9 7 5 2 3 4 6 7 8 8 10
6 6 6 7 9 10 11 10 10 10 14 20 22 22 21 21 20 19 19 20 19 20 19 18 17 16 15 14 11 10 8 6 4 3 1 1 3 4 5 5 6 9 13
7 7 7 8 9 11 12 12 14 15 16 19 20 20 19 17 17 16 15 14 14 14 13 12 11 10 9 8 7 7 6 6 3 1 0 1 2 4 5 7 9 10 14
6 5 8 9 10 11 12 14 14 14 14 13 12 12 13 15 15 14 13 12 12 12 10 9 7 6 6 8 8 7 5 4 4 4 6 5 5 7 8 8 11 14 15
7 5 5 8 10 11 11 12 11 12 11 10 7 6 6 6 7 7 8 8 8 5 4 5 5 3 3 4 4 2 2 5 8 8 7 6 7 8 11 15 18 19 20
10 8 7 8 10 11 12 13 13 13 11 9 7 5 4 3 2 1 1 1 2 2 2 1 1 3 5 5 3 1 5 8 6 7 9 9 10 13 16 18 15 16 22
10 10 9 9 9 11 13 14 15 15 15 14 12 11 10 9 9 7 4 3 2 1 1 3 3 5 4 2 2 5 8 9 9 10 11 10 13 15 15 16 19 20 22
14 12 11 11 11 11 11 14 16 17 17 17 17 17 16 15 13 12 11 9 7 4 4 6 6 6 9 10 11 12 13 13 13 13 13 13 14 15 18 20 20 21 24
21 18 16 16 15 14 15 14 14 15 18 20 20 20 21 18 17 16 16 16 15 12 9 10 11 11 11 13 15 15 16 16 16 15 15 16 17 19 20 22 25 27 25
26 24 21 20 19 18 18 17 17 17 16 17 19 20 23 23 20 21 21 21 19 18 17 15 16 16 16 18 20 19 19 18 19 18 17 20 22 23 24 26 28 31 30
31 28 25 22 22 22 22 21 21 21 21 21 19 18 21 24 22 22 23 23 23 24 22 22 22 23 23 23 23 22 22 22 23 24 24 26 26 27 29 29 30 31 31
36 33 29 27 25 25 26 25 25 24 24 23 23 21 18 21 23 23 24 24 24 24 24 23 24 25 25 26 26 26 26 26 26 26 29 30 29 29 31 34 32 30 32
40 40 37 34 32 29 28 29 26 26 27 25 25 26 25 22 22 23 24 25 24 26 26 27 28 29 29 29 30 29 28 28 29 31 33 34 34 32 34 37 36 32 34
Wind_Direction
279 279 289 287 298 295 288 292 291 295 271 253 281 325 303 347 5 356 1 18 45 144 138 152 154 159 170 162 153 160 171 181 183 157 176 168 174 176 180 211 188 173 208
280 290 287 296 294 275 281 301 293 286 248 230 268 316 310 342 336 326 4 8 105 110 139 154 159 161 173 159 155 177 191 195 194 180 166 165 173 181 199 185 199 201 177
291 292 290 300 286 256 269 302 296 285 232 210 141 214 258 339 356 9 5 15 91 116 129 156 153 126 76 74 130 202 209 196 181 174 174 173 140 176 164 166 175 178 167
294 296 292 302 279 273 273 291 319 283 230 215 193 299 311 71 49 21 49 63 86 112 116 131 156 147 137 179 133 109 178 188 174 168 158 175 177 162 176 176 159 160 157
298 318 322 303 291 268 261 252 277 265 203 197 191 301 185 91 38 18 65 88 93 92 99 129 139 130 154 105 89 101 121 130 145 129 137 173 135 132 141 143 148 157 167
342 341 333 313 298 294 266 258 249 236 200 204 209 212 169 111 63 32 75 86 87 99 115 109 141 144 109 105 105 112 122 109 129 98 112 118 118 122 131 144 152 158 162
346 353 339 341 322 321 298 300 249 219 195 201 182 196 174 124 87 38 58 84 94 104 118 107 97 118 110 105 106 101 120 126 117 108 110 111 110 115 129 136 143 147 151
31 43 47 30 24 28 48 38 8 252 230 194 172 184 179 138 109 64 44 71 94 101 110 117 100 103 107 101 102 101 114 130 124 117 123 115 107 112 127 130 131 132 137
68 70 59 48 47 43 58 49 30 94 187 196 169 162 174 148 119 100 53 74 94 111 112 119 115 101 113 114 115 107 114 125 134 143 130 114 113 122 125 128 131 138 147
93 85 72 71 70 62 63 59 50 52 97 150 159 153 166 168 141 131 104 87 100 112 117 117 129 111 115 120 133 127 123 123 130 136 131 114 114 121 124 123 119 119 121
111 109 90 81 74 62 58 50 53 67 99 117 140 150 154 168 168 152 125 123 119 114 117 114 123 121 114 109 114 117 114 109 110 118 118 112 118 114 111 109 102 74 33
124 116 115 104 90 79 71 65 64 87 92 107 118 137 152 159 166 166 135 125 110 110 126 117 120 122 117 115 114 109 112 113 110 114 119 117 111 111 109 87 45 16 358
127 123 133 123 112 107 93 82 77 80 92 92 100 110 130 141 151 157 153 140 122 109 132 132 119 119 117 116 117 114 116 120 125 122 114 112 111 67 44 15 4 351 340
145 129 121 132 133 121 113 102 88 87 88 85 93 93 94 101 106 108 114 121 119 113 112 114 112 112 109 110 114 115 115 113 112 110 102 73 21 9 5 3 344 334 319
172 143 125 125 130 130 126 122 113 105 99 100 100 99 101 101 101 102 102 106 109 111 111 111 114 115 115 113 112 112 113 111 117 129 129 37 1 358 2 347 326 315 307
202 173 152 143 137 135 130 127 122 120 115 112 106 101 96 91 90 93 97 95 96 96 97 100 101 101 101 105 110 111 115 115 102 76 45 337 342 328 318 317 314 327 331
184 192 183 167 164 155 147 139 133 130 132 125 112 101 94 96 92 89 93 98 97 95 90 82 79 87 105 113 112 89 101 62 23 3 3 340 310 300 293 297 326 328 336
201 197 202 197 189 184 177 166 158 152 152 152 141 124 112 101 87 75 78 81 81 90 99 98 68 74 120 126 134 169 344 327 353 357 349 328 323 312 308 308 316 321 323
215 215 219 220 208 209 203 201 193 187 186 178 184 189 205 216 203 214 49 59 71 64 53 78 51 67 136 140 136 294 307 320 331 314 309 309 298 300 306 312 318 318 317
220 226 230 238 228 222 220 219 221 217 210 206 218 231 240 253 261 264 271 285 288 246 272 228 221 199 171 143 338 325 322 320 312 305 309 299 301 305 307 308 310 313 312
228 228 237 241 243 242 239 233 230 230 231 228 224 233 240 247 254 263 270 274 275 266 243 225 230 251 253 267 288 304 310 311 304 299 303 311 314 309 309 313 308 307 307
238 235 234 239 245 248 247 245 245 243 242 240 241 239 246 246 249 255 261 266 268 262 244 225 230 238 245 258 271 282 292 291 288 285 291 298 303 299 302 303 304 309 309
241 241 236 238 243 245 248 251 250 248 247 248 246 243 243 257 255 255 258 263 266 267 265 244 238 241 253 266 273 275 278 278 281 280 282 289 292 294 296 299 301 304 309
241 246 246 244 248 250 249 248 249 253 254 254 254 251 245 248 254 260 265 265 266 268 267 265 262 262 261 262 260 263 271 275 278 277 279 283 286 290 294 295 296 302 306
237 240 243 246 248 258 260 254 253 251 253 260 260 257 255 257 260 263 266 270 272 270 268 267 265 264 265 269 272 274 275 272 271 273 279 282 286 292 293 291 290 297 299
237 240 240 241 248 250 258 266 266 263 263 259 259 260 257 251 259 263 266 267 269 273 274 273 272 271 271 270 272 271 272 275 275 277 280 286 292 291 288 286 286 292 297
Height
5723 5722 5720 5718 5716 5713 5711 5709 5707 5706 5703 5702 5700 5701 5700 5700 5699 5696 5693 5692 5689 5689 5690 5691 5693 5696 5699 5701 5702 5703 5708 5713 5716 5719 5723 5728 5730 5735 5739 5742 5752 5758 5762
5720 5719 5716 5716 5713 5712 5709 5707 5705 5704 5702 5701 5701 5701 5702 5701 5700 5697 5696 5694 5692 5692 5692 5694 5696 5699 5701 5702 5703 5707 5711 5714 5717 5720 5724 5726 5729 5736 5741 5745 5752 5757 5763
5719 5717 5715 5713 5712 5710 5709 5707 5704 5703 5701 5701 5701 5701 5702 5702 5701 5699 5698 5694 5695 5694 5694 5696 5697 5700 5701 5703 5706 5709 5711 5714 5718 5722 5725 5728 5732 5737 5742 5748 5752 5758 5763
5716 5715 5714 5712 5711 5709 5708 5706 5704 5703 5701 5702 5703 5703 5703 5703 5703 5701 5699 5697 5695 5696 5696 5697 5700 5702 5705 5707 5708 5710 5712 5716 5720 5723 5726 5731 5736 5740 5745 5749 5754 5759 5765
5714 5713 5712 5711 5710 5708 5707 5706 5705 5703 5702 5703 5704 5704 5705 5705 5704 5703 5702 5699 5699 5699 5699 5701 5703 5706 5709 5710 5711 5710 5711 5716 5722 5726 5729 5735 5740 5744 5749 5754 5759 5764 5769
5714 5712 5711 5709 5709 5707 5706 5705 5705 5704 5704 5704 5705 5706 5707 5708 5707 5705 5704 5703 5703 5703 5703 5706 5708 5711 5714 5715 5715 5717 5719 5724 5729 5732 5736 5742 5746 5750 5754 5759 5763 5767 5772
5714 5712 5710 5709 5708 5707 5706 5705 5705 5706 5706 5705 5706 5706 5708 5710 5710 5709 5707 5708 5707 5707 5708 5711 5713 5715 5718 5718 5720 5722 5724 5729 5734 5739 5743 5747 5751 5754 5758 5762 5766 5770 5774
5714 5712 5711 5710 5709 5708 5707 5706 5706 5706 5706 5705 5706 5707 5709 5712 5713 5713 5711 5710 5711 5711 5712 5715 5718 5721 5723 5724 5726 5728 5732 5736 5740 5745 5747 5751 5754 5758 5761 5765 5768 5772 5776
5715 5713 5713 5711 5711 5710 5708 5707 5706 5705 5704 5705 5707 5708 5710 5714 5715 5717 5717 5715 5715 5716 5717 5719 5723 5725 5727 5729 5732 5735 5737 5740 5743 5747 5751 5755 5759 5762 5764 5768 5771 5774 5778
5717 5716 5716 5715 5714 5713 5711 5709 5708 5705 5705 5707 5708 5710 5712 5715 5717 5719 5720 5721 5720 5721 5722 5723 5726 5728 5730 5732 5735 5737 5741 5744 5747 5751 5756 5760 5763 5765 5768 5771 5773 5776 5778
5720 5719 5718 5718 5717 5716 5714 5713 5712 5710 5710 5710 5711 5712 5714 5717 5719 5721 5723 5725 5727 5726 5727 5728 5730 5732 5734 5736 5738 5741 5744 5749 5752 5756 5760 5763 5766 5767 5769 5771 5773 5776 5777
5721 5721 5722 5721 5720 5719 5718 5717 5715 5714 5714 5714 5715 5715 5717 5719 5721 5722 5724 5725 5726 5728 5730 5732 5734 5737 5739 5741 5743 5745 5749 5752 5756 5760 5762 5764 5766 5769 5770 5772 5774 5775 5776
5722 5723 5723 5723 5723 5723 5723 5722 5721 5719 5718 5718 5718 5719 5720 5722 5724 5725 5727 5728 5730 5731 5733 5736 5738 5740 5742 5744 5747 5749 5752 5755 5758 5761 5763 5765 5767 5769 5768 5772 5773 5774 5775
5724 5724 5725 5725 5725 5726 5726 5727 5727 5726 5726 5725 5724 5725 5725 5726 5728 5730 5732 5732 5734 5736 5737 5739 5741 5744 5746 5748 5750 5753 5755 5758 5760 5762 5764 5766 5767 5767 5769 5770 5771 5772 5772
5726 5726 5726 5727 5728 5728 5729 5729 5730 5731 5731 5732 5732 5732 5733 5735 5736 5737 5738 5739 5741 5741 5743 5745 5746 5748 5749 5751 5753 5755 5757 5759 5761 5763 5764 5764 5765 5766 5768 5770 5771 5771 5769
5726 5727 5728 5729 5730 5731 5731 5732 5733 5734 5736 5737 5737 5738 5739 5741 5741 5743 5744 5745 5745 5747 5748 5750 5751 5752 5753 5755 5756 5758 5759 5761 5761 5761 5763 5764 5766 5767 5768 5768 5767 5768 5767
5726 5728 5729 5731 5732 5733 5735 5735 5736 5738 5739 5741 5742 5743 5744 5745 5746 5747 5748 5749 5750 5751 5752 5753 5754 5755 5756 5757 5758 5759 5759 5760 5761 5762 5763 5765 5766 5766 5765 5765 5765 5765 5764
5725 5727 5729 5731 5733 5734 5736 5737 5739 5740 5742 5744 5745 5746 5747 5748 5749 5750 5751 5752 5752 5753 5754 5755 5755 5756 5757 5758 5759 5760 5761 5761 5763 5764 5765 5765 5765 5764 5763 5762 5762 5761 5760
5724 5726 5728 5729 5732 5734 5736 5737 5739 5741 5743 5744 5745 5747 5748 5749 5750 5751 5752 5753 5753 5754 5754 5755 5756 5756 5757 5758 5759 5760 5761 5761 5762 5762 5761 5761 5759 5759 5759 5757 5757 5756 5753
5722 5724 5726 5728 5729 5731 5734 5736 5738 5739 5741 5743 5745 5746 5747 5748 5749 5750 5751 5752 5753 5754 5754 5755 5755 5756 5757 5757 5758 5758 5759 5759 5758 5757 5757 5757 5757 5756 5755 5755 5752 5751 5749
5719 5721 5723 5726 5727 5729 5730 5732 5734 5736 5738 5740 5742 5743 5744 5745 5747 5748 5749 5750 5751 5751 5752 5753 5754 5755 5756 5756 5755 5755 5755 5754 5754 5754 5754 5753 5752 5752 5750 5749 5748 5747 5742
5714 5717 5720 5722 5724 5725 5727 5728 5730 5732 5734 5736 5738 5740 5740 5742 5744 5745 5746 5747 5747 5748 5749 5750 5750 5751 5751 5752 5752 5752 5752 5751 5749 5749 5749 5749 5748 5745 5744 5742 5739 5737 5736
5708 5711 5715 5716 5718 5720 5722 5724 5725 5727 5728 5730 5732 5736 5737 5737 5740 5741 5742 5742 5743 5744 5745 5746 5746 5747 5747 5747 5747 5747 5746 5746 5746 5745 5745 5744 5741 5740 5738 5736 5733 5729 5729
5702 5705 5708 5711 5712 5714 5716 5718 5720 5721 5722 5724 5726 5729 5731 5732 5734 5736 5736 5738 5739 5739 5740 5741 5741 5741 5741 5740 5739 5740 5739 5739 5738 5738 5738 5736 5735 5734 5730 5728 5725 5724 5722
5694 5697 5700 5703 5707 5708 5709 5711 5713 5715 5717 5719 5720 5721 5724 5726 5727 5729 5730 5731 5732 5733 5733 5733 5733 5734 5733 5734 5734 5734 5733 5732 5731 5730 5729 5728 5728 5727 5724 5721 5717 5717 5714
5686 5688 5691 5694 5697 5700 5702 5704 5707 5708 5709 5711 5712 5714 5714 5718 5719 5720 5721 5721 5723 5724 5725 5726 5726 5725 5725 5726 5726 5725 5725 5725 5724 5723 5720 5719 5718 5718 5715 5709 5707 5709 5707